Location: İstanbul
(41.0082°N, 28.9784°E)
Time: 15:00:23
(UTC+03:00)

ESTCUBE 1 - Visible Passes

Search period start: 13 April 2024 00:00
Search period end: 23 April 2024 00:00
Orbit: 635 x 649 km, 97.8° (Epoch: 13 April)

Date Brightness Start Highest point End Pass type
(mag) Time Alt. Az. Time Alt. Az. Time Alt. Az.
13 Apr ? 22:42:03 39° NNW 22:42:03 39° NNW 22:44:52 10° NNW visible
14 Apr ? 21:28:43 16° ENE 21:28:43 16° ENE 21:31:09 10° NNE visible
14 Apr ? 23:06:21 30° NW 23:06:21 30° NW 23:08:51 10° NNW visible
15 Apr ? 21:53:01 27° NE 21:53:01 27° NE 21:56:03 10° N visible
15 Apr ? 23:30:38 20° WNW 23:30:38 20° WNW 23:32:31 10° NW visible
16 Apr ? 22:17:19 40° NNE 22:17:19 40° NNE 22:20:33 10° N visible
16 Apr ? 23:54:56 12° WNW 23:54:56 12° WNW 23:55:35 10° WNW visible
17 Apr ? 22:41:36 47° NNW 22:41:36 47° NNW 22:44:46 10° NNW visible
18 Apr ? 21:28:16 17° ENE 21:28:17 17° ENE 21:31:03 10° NNE visible
18 Apr ? 23:05:52 34° NW 23:05:52 34° NW 23:08:44 10° NNW visible
19 Apr ? 21:52:32 28° ENE 21:52:32 28° ENE 21:55:55 10° N visible
19 Apr ? 23:30:10 22° WNW 23:30:10 22° WNW 23:32:23 10° NW visible
20 Apr ? 22:16:48 45° NE 22:16:48 45° NE 22:20:24 10° N visible
20 Apr ? 23:54:26 13° WNW 23:54:26 13° WNW 23:55:25 10° WNW visible
21 Apr ? 22:41:05 56° NNW 22:41:05 56° NNW 22:44:36 10° NNW visible
22 Apr ? 21:27:44 16° ENE 21:28:07 17° ENE 21:30:53 10° NNE visible
22 Apr ? 23:05:21 39° WNW 23:05:21 39° WNW 23:08:33 10° NNW visible
